,Coso Junction,Coso Junction
,PM10_1HR,PM10_1HR
,,
Date,Value,Null Code
01-Apr-2020 00:00,6.9,
01-Apr-2020 01:00,7.1,
01-Apr-2020 02:00,10.7,
01-Apr-2020 03:00,5.6,
01-Apr-2020 04:00,7.5,
01-Apr-2020 05:00,6.8,
01-Apr-2020 06:00,6.8,
01-Apr-2020 07:00,10,
01-Apr-2020 08:00,7.2,
01-Apr-2020 09:00,7.6,
01-Apr-2020 10:00,9.4,
01-Apr-2020 11:00,7,
01-Apr-2020 12:00,3.6,
01-Apr-2020 13:00,9.6,
01-Apr-2020 14:00,2.8,
01-Apr-2020 15:00,7,
01-Apr-2020 16:00,6.5,
01-Apr-2020 17:00,11.5,
01-Apr-2020 18:00,7.9,
01-Apr-2020 19:00,9.7,
01-Apr-2020 20:00,5.7,
01-Apr-2020 21:00,12.5,
01-Apr-2020 22:00,5.7,
01-Apr-2020 23:00,4.2,
02-Apr-2020 00:00,5.9,
02-Apr-2020 01:00,4.6,
02-Apr-2020 02:00,10.2,
02-Apr-2020 03:00,12.9,
02-Apr-2020 04:00,12,
02-Apr-2020 05:00,16.1,
02-Apr-2020 06:00,18.6,
02-Apr-2020 07:00,18.4,
02-Apr-2020 08:00,17.6,
02-Apr-2020 09:00,16.7,
02-Apr-2020 10:00,15.1,
02-Apr-2020 11:00,13.5,
02-Apr-2020 12:00,15.3,
02-Apr-2020 13:00,14.6,
02-Apr-2020 14:00,28.2,
02-Apr-2020 15:00,25.8,
02-Apr-2020 16:00,30.1,
02-Apr-2020 17:00,20.7,
02-Apr-2020 18:00,18.4,
02-Apr-2020 19:00,18.9,
02-Apr-2020 20:00,16.9,
02-Apr-2020 21:00,13.9,
02-Apr-2020 22:00,10.7,
02-Apr-2020 23:00,10.7,
03-Apr-2020 00:00,10.9,
03-Apr-2020 01:00,11.1,
03-Apr-2020 02:00,10.1,
03-Apr-2020 03:00,10.5,
03-Apr-2020 04:00,12.6,
03-Apr-2020 05:00,17.4,
03-Apr-2020 06:00,10.8,
03-Apr-2020 07:00,14.7,
03-Apr-2020 08:00,14.6,
03-Apr-2020 09:00,12.1,
03-Apr-2020 10:00,19.6,
03-Apr-2020 11:00,18.9,
03-Apr-2020 12:00,18,
03-Apr-2020 13:00,16,
03-Apr-2020 14:00,17.4,
03-Apr-2020 15:00,17.9,
03-Apr-2020 16:00,17.8,
03-Apr-2020 17:00,17.5,
03-Apr-2020 18:00,14.6,
03-Apr-2020 19:00,17.5,
03-Apr-2020 20:00,14.8,
03-Apr-2020 21:00,14.4,
03-Apr-2020 22:00,11.1,
03-Apr-2020 23:00,9.3,
04-Apr-2020 00:00,9,
04-Apr-2020 01:00,8.7,
04-Apr-2020 02:00,9.1,
04-Apr-2020 03:00,9,
04-Apr-2020 04:00,8.5,
04-Apr-2020 05:00,8.8,
04-Apr-2020 06:00,11,
04-Apr-2020 07:00,13.9,
04-Apr-2020 08:00,13.8,
04-Apr-2020 09:00,18.4,
04-Apr-2020 10:00,24.9,
04-Apr-2020 11:00,11.5,
04-Apr-2020 12:00,9.8,
04-Apr-2020 13:00,14.4,
04-Apr-2020 14:00,21.2,
04-Apr-2020 15:00,11.5,
04-Apr-2020 16:00,10.9,
04-Apr-2020 17:00,7,
04-Apr-2020 18:00,6.1,
04-Apr-2020 19:00,8,
04-Apr-2020 20:00,8,
04-Apr-2020 21:00,5.5,
04-Apr-2020 22:00,5.5,
04-Apr-2020 23:00,4.8,
05-Apr-2020 00:00,6.8,
05-Apr-2020 01:00,7.4,
05-Apr-2020 02:00,7.8,
05-Apr-2020 03:00,9,
05-Apr-2020 04:00,10.6,
05-Apr-2020 05:00,13,
05-Apr-2020 06:00,12.6,
05-Apr-2020 07:00,13.3,
05-Apr-2020 08:00,13,
05-Apr-2020 09:00,10.9,
05-Apr-2020 10:00,9.4,
05-Apr-2020 11:00,6.6,
05-Apr-2020 12:00,3.4,
05-Apr-2020 13:00,9,
05-Apr-2020 14:00,6.6,
05-Apr-2020 15:00,4.2,
05-Apr-2020 16:00,8.9,
05-Apr-2020 17:00,11.9,
05-Apr-2020 18:00,9.9,
05-Apr-2020 19:00,6.4,
05-Apr-2020 20:00,5.1,
05-Apr-2020 21:00,4.3,
05-Apr-2020 22:00,4.4,
05-Apr-2020 23:00,3.1,
06-Apr-2020 00:00,3.2,
06-Apr-2020 01:00,4.4,
06-Apr-2020 02:00,3.8,
06-Apr-2020 03:00,3.2,
06-Apr-2020 04:00,5.4,
06-Apr-2020 05:00,4,
06-Apr-2020 06:00,3.8,
06-Apr-2020 07:00,4.4,
06-Apr-2020 08:00,5.8,
06-Apr-2020 09:00,3.4,
06-Apr-2020 10:00,4.3,
06-Apr-2020 11:00,5.2,
06-Apr-2020 12:00,4.1,
06-Apr-2020 13:00,3.3,
06-Apr-2020 14:00,2.5,
06-Apr-2020 15:00,3.8,
06-Apr-2020 16:00,4.3,
06-Apr-2020 17:00,5.3,
06-Apr-2020 18:00,4.3,
06-Apr-2020 19:00,3.8,
06-Apr-2020 20:00,4.9,
06-Apr-2020 21:00,4.7,
06-Apr-2020 22:00,4.9,
06-Apr-2020 23:00,5.2,
07-Apr-2020 00:00,4.2,
07-Apr-2020 01:00,3.2,
07-Apr-2020 02:00,4.4,
07-Apr-2020 03:00,5.2,
07-Apr-2020 04:00,6.2,
07-Apr-2020 05:00,5.6,
07-Apr-2020 06:00,6.8,
07-Apr-2020 07:00,6.1,
07-Apr-2020 08:00,5.3,
07-Apr-2020 09:00,5.8,
07-Apr-2020 10:00,0.4,
07-Apr-2020 11:00,5.2,
07-Apr-2020 12:00,4,
07-Apr-2020 13:00,0.9,
07-Apr-2020 14:00,2.9,
07-Apr-2020 15:00,9,
07-Apr-2020 16:00,3.9,
07-Apr-2020 17:00,9.4,
07-Apr-2020 18:00,6,
07-Apr-2020 19:00,4.4,
07-Apr-2020 20:00,2.7,
07-Apr-2020 21:00,3.4,
07-Apr-2020 22:00,0.8,
07-Apr-2020 23:00,2.1,
08-Apr-2020 00:00,2.1,
08-Apr-2020 01:00,3.4,
08-Apr-2020 02:00,2.1,
08-Apr-2020 03:00,-0.8,
08-Apr-2020 04:00,-0.8,
08-Apr-2020 05:00,2.5,
08-Apr-2020 06:00,0.6,
08-Apr-2020 07:00,5,
08-Apr-2020 08:00,1.5,
08-Apr-2020 09:00,4.8,
08-Apr-2020 10:00,5.1,
08-Apr-2020 11:00,2.4,
08-Apr-2020 12:00,3.1,
08-Apr-2020 13:00,4,
08-Apr-2020 14:00,2,
08-Apr-2020 15:00,0.4,
08-Apr-2020 16:00,2,
08-Apr-2020 17:00,2.5,
08-Apr-2020 18:00,3.6,
08-Apr-2020 19:00,3.5,
08-Apr-2020 20:00,2.8,
08-Apr-2020 21:00,3.2,
08-Apr-2020 22:00,1.9,
08-Apr-2020 23:00,3.1,
09-Apr-2020 00:00,2.1,
09-Apr-2020 01:00,2,
09-Apr-2020 02:00,2.5,
09-Apr-2020 03:00,1.7,
09-Apr-2020 04:00,4.2,
09-Apr-2020 05:00,5.5,
09-Apr-2020 06:00,2.6,
09-Apr-2020 07:00,4.2,
09-Apr-2020 08:00,5.6,
09-Apr-2020 09:00,,AX
09-Apr-2020 10:00,,AX
09-Apr-2020 11:00,9.6,
09-Apr-2020 12:00,4.2,
09-Apr-2020 13:00,0.7,
09-Apr-2020 14:00,1.8,
09-Apr-2020 15:00,2.8,
09-Apr-2020 16:00,1.2,
09-Apr-2020 17:00,2.6,
09-Apr-2020 18:00,2.7,
09-Apr-2020 19:00,3.3,
09-Apr-2020 20:00,4.1,
09-Apr-2020 21:00,1.5,
09-Apr-2020 22:00,2.2,
09-Apr-2020 23:00,1.3,
10-Apr-2020 00:00,3,
10-Apr-2020 01:00,2.6,
10-Apr-2020 02:00,2.9,
10-Apr-2020 03:00,2.4,
10-Apr-2020 04:00,1.4,
10-Apr-2020 05:00,2.9,
10-Apr-2020 06:00,4,
10-Apr-2020 07:00,3.3,
10-Apr-2020 08:00,4.7,
10-Apr-2020 09:00,3.3,
10-Apr-2020 10:00,4.5,
10-Apr-2020 11:00,1.1,
10-Apr-2020 12:00,2.5,
10-Apr-2020 13:00,3.2,
10-Apr-2020 14:00,3.3,
10-Apr-2020 15:00,4.5,
10-Apr-2020 16:00,5.4,
10-Apr-2020 17:00,5.6,
10-Apr-2020 18:00,5,
10-Apr-2020 19:00,5.8,
10-Apr-2020 20:00,3.5,
10-Apr-2020 21:00,2.4,
10-Apr-2020 22:00,3,
10-Apr-2020 23:00,2.4,
11-Apr-2020 00:00,1.3,
11-Apr-2020 01:00,1.7,
11-Apr-2020 02:00,2.4,
11-Apr-2020 03:00,2.8,
11-Apr-2020 04:00,3.2,
11-Apr-2020 05:00,4,
11-Apr-2020 06:00,4.9,
11-Apr-2020 07:00,6.7,
11-Apr-2020 08:00,5.7,
11-Apr-2020 09:00,0.3,
11-Apr-2020 10:00,2.8,
11-Apr-2020 11:00,2.7,
11-Apr-2020 12:00,4.6,
11-Apr-2020 13:00,5.8,
11-Apr-2020 14:00,5.8,
11-Apr-2020 15:00,8.1,
11-Apr-2020 16:00,8.7,
11-Apr-2020 17:00,8.2,
11-Apr-2020 18:00,7.3,
11-Apr-2020 19:00,8.4,
11-Apr-2020 20:00,5.3,
11-Apr-2020 21:00,6.3,
11-Apr-2020 22:00,6.8,
11-Apr-2020 23:00,6.1,
12-Apr-2020 00:00,4.6,
12-Apr-2020 01:00,4.6,
12-Apr-2020 02:00,6.1,
12-Apr-2020 03:00,4.7,
12-Apr-2020 04:00,5.9,
12-Apr-2020 05:00,6.3,
12-Apr-2020 06:00,8.5,
12-Apr-2020 07:00,9.8,
12-Apr-2020 08:00,6.8,
12-Apr-2020 09:00,6.2,
12-Apr-2020 10:00,5.1,
12-Apr-2020 11:00,13,
12-Apr-2020 12:00,7.6,
12-Apr-2020 13:00,7.2,
12-Apr-2020 14:00,7.5,
12-Apr-2020 15:00,9.9,
12-Apr-2020 16:00,8.1,
12-Apr-2020 17:00,17.5,
12-Apr-2020 18:00,13.7,
12-Apr-2020 19:00,9.1,
12-Apr-2020 20:00,7.8,
12-Apr-2020 21:00,6.2,
12-Apr-2020 22:00,8.1,
12-Apr-2020 23:00,7.3,
13-Apr-2020 00:00,7.2,
13-Apr-2020 01:00,7.7,
13-Apr-2020 02:00,7.7,
13-Apr-2020 03:00,7,
13-Apr-2020 04:00,6.4,
13-Apr-2020 05:00,5.8,
13-Apr-2020 06:00,8.9,
13-Apr-2020 07:00,9.9,
13-Apr-2020 08:00,9.5,
13-Apr-2020 09:00,5.2,
13-Apr-2020 10:00,8.4,
13-Apr-2020 11:00,6.3,
13-Apr-2020 12:00,13,
13-Apr-2020 13:00,9.9,
13-Apr-2020 14:00,9,
13-Apr-2020 15:00,11.2,
13-Apr-2020 16:00,11.2,
13-Apr-2020 17:00,11.6,
13-Apr-2020 18:00,13.4,
13-Apr-2020 19:00,18.5,
13-Apr-2020 20:00,10.1,
13-Apr-2020 21:00,11.1,
13-Apr-2020 22:00,23.9,
13-Apr-2020 23:00,11.7,
14-Apr-2020 00:00,37.4,
14-Apr-2020 01:00,11.9,
14-Apr-2020 02:00,10.1,
14-Apr-2020 03:00,9.8,
14-Apr-2020 04:00,9.2,
14-Apr-2020 05:00,9.4,
14-Apr-2020 06:00,9,
14-Apr-2020 07:00,8.7,
14-Apr-2020 08:00,11.4,
14-Apr-2020 09:00,7.2,
14-Apr-2020 10:00,5.2,
14-Apr-2020 11:00,3.6,
14-Apr-2020 12:00,3.1,
14-Apr-2020 13:00,4,
14-Apr-2020 14:00,3.4,
14-Apr-2020 15:00,4.2,
14-Apr-2020 16:00,10.3,
14-Apr-2020 17:00,11.7,
14-Apr-2020 18:00,11.9,
14-Apr-2020 19:00,17.4,
14-Apr-2020 20:00,17.4,
14-Apr-2020 21:00,6.7,
14-Apr-2020 22:00,6.7,
14-Apr-2020 23:00,7.3,
15-Apr-2020 00:00,11.8,
15-Apr-2020 01:00,8.5,
15-Apr-2020 02:00,4.3,
15-Apr-2020 03:00,5.5,
15-Apr-2020 04:00,7.3,
15-Apr-2020 05:00,10.6,
15-Apr-2020 06:00,6.8,
15-Apr-2020 07:00,11.9,
15-Apr-2020 08:00,8.9,
15-Apr-2020 09:00,3.6,
15-Apr-2020 10:00,3.6,
15-Apr-2020 11:00,10.5,
15-Apr-2020 12:00,8.8,
15-Apr-2020 13:00,8,
15-Apr-2020 14:00,13.2,
15-Apr-2020 15:00,12.1,
15-Apr-2020 16:00,14.2,
15-Apr-2020 17:00,15.8,
15-Apr-2020 18:00,11,
15-Apr-2020 19:00,15.3,
15-Apr-2020 20:00,13.5,
15-Apr-2020 21:00,13.8,
15-Apr-2020 22:00,11.9,
15-Apr-2020 23:00,9.8,
16-Apr-2020 00:00,10.1,
16-Apr-2020 01:00,7.8,
16-Apr-2020 02:00,7.9,
16-Apr-2020 03:00,9.2,
16-Apr-2020 04:00,8.8,
16-Apr-2020 05:00,9.6,
16-Apr-2020 06:00,13.7,
16-Apr-2020 07:00,15.1,
16-Apr-2020 08:00,8.9,
16-Apr-2020 09:00,7.9,
16-Apr-2020 10:00,8,
16-Apr-2020 11:00,11.8,
16-Apr-2020 12:00,11.5,
16-Apr-2020 13:00,14.5,
16-Apr-2020 14:00,15.3,
16-Apr-2020 15:00,12.2,
16-Apr-2020 16:00,13.6,
16-Apr-2020 17:00,13,
16-Apr-2020 18:00,11.6,
16-Apr-2020 19:00,11.9,
16-Apr-2020 20:00,15.2,
16-Apr-2020 21:00,16.4,
16-Apr-2020 22:00,13.4,
16-Apr-2020 23:00,10.9,
17-Apr-2020 00:00,8.4,
17-Apr-2020 01:00,7.5,
17-Apr-2020 02:00,6.8,
17-Apr-2020 03:00,8.5,
17-Apr-2020 04:00,8.1,
17-Apr-2020 05:00,9,
17-Apr-2020 06:00,9.7,
17-Apr-2020 07:00,9.5,
17-Apr-2020 08:00,11.7,
17-Apr-2020 09:00,10.3,
17-Apr-2020 10:00,11.9,
17-Apr-2020 11:00,12.2,
17-Apr-2020 12:00,10.2,
17-Apr-2020 13:00,13.4,
17-Apr-2020 14:00,4.6,
17-Apr-2020 15:00,8.8,
17-Apr-2020 16:00,6.3,
17-Apr-2020 17:00,4.3,
17-Apr-2020 18:00,5.1,
17-Apr-2020 19:00,8,
17-Apr-2020 20:00,5.4,
17-Apr-2020 21:00,3.9,
17-Apr-2020 22:00,4.7,
17-Apr-2020 23:00,5.4,
18-Apr-2020 00:00,4.4,
18-Apr-2020 01:00,5,
18-Apr-2020 02:00,5.6,
18-Apr-2020 03:00,4.8,
18-Apr-2020 04:00,5.7,
18-Apr-2020 05:00,5.8,
18-Apr-2020 06:00,7.6,
18-Apr-2020 07:00,10.7,
18-Apr-2020 08:00,4.1,
18-Apr-2020 09:00,4.5,
18-Apr-2020 10:00,1.1,
18-Apr-2020 11:00,1.9,
18-Apr-2020 12:00,1.8,
18-Apr-2020 13:00,5.8,
18-Apr-2020 14:00,5.5,
18-Apr-2020 15:00,5,
18-Apr-2020 16:00,5.4,
18-Apr-2020 17:00,5.4,
18-Apr-2020 18:00,10.8,
18-Apr-2020 19:00,9.1,
18-Apr-2020 20:00,5.6,
18-Apr-2020 21:00,5,
18-Apr-2020 22:00,4,
18-Apr-2020 23:00,4.9,
19-Apr-2020 00:00,2.4,
19-Apr-2020 01:00,1.6,
19-Apr-2020 02:00,2.6,
19-Apr-2020 03:00,3.2,
19-Apr-2020 04:00,3.3,
19-Apr-2020 05:00,6.7,
19-Apr-2020 06:00,8.2,
19-Apr-2020 07:00,8.2,
19-Apr-2020 08:00,6,
19-Apr-2020 09:00,6.4,
19-Apr-2020 10:00,4.7,
19-Apr-2020 11:00,4.2,
19-Apr-2020 12:00,5,
19-Apr-2020 13:00,4.7,
19-Apr-2020 14:00,7.5,
19-Apr-2020 15:00,7.9,
19-Apr-2020 16:00,12,
19-Apr-2020 17:00,21.9,
19-Apr-2020 18:00,12,
19-Apr-2020 19:00,12.4,
19-Apr-2020 20:00,13.1,
19-Apr-2020 21:00,12.1,
19-Apr-2020 22:00,10.4,
19-Apr-2020 23:00,9,
20-Apr-2020 00:00,7.1,
20-Apr-2020 01:00,5.9,
20-Apr-2020 02:00,6.9,
20-Apr-2020 03:00,6.7,
20-Apr-2020 04:00,7.7,
20-Apr-2020 05:00,8.1,
20-Apr-2020 06:00,9.2,
20-Apr-2020 07:00,9.2,
20-Apr-2020 08:00,8.6,
20-Apr-2020 09:00,7.1,
20-Apr-2020 10:00,9.3,
20-Apr-2020 11:00,7.7,
20-Apr-2020 12:00,6.2,
20-Apr-2020 13:00,6.6,
20-Apr-2020 14:00,16.2,
20-Apr-2020 15:00,8.2,
20-Apr-2020 16:00,9.9,
20-Apr-2020 17:00,10.9,
20-Apr-2020 18:00,10.7,
20-Apr-2020 19:00,7.4,
20-Apr-2020 20:00,7.8,
20-Apr-2020 21:00,6.7,
20-Apr-2020 22:00,4.3,
20-Apr-2020 23:00,5,
21-Apr-2020 00:00,5.8,
21-Apr-2020 01:00,4.9,
21-Apr-2020 02:00,5.6,
21-Apr-2020 03:00,6.8,
21-Apr-2020 04:00,4.6,
21-Apr-2020 05:00,5.5,
21-Apr-2020 06:00,7.4,
21-Apr-2020 07:00,7.1,
21-Apr-2020 08:00,8.5,
21-Apr-2020 09:00,7,
21-Apr-2020 10:00,6.9,
21-Apr-2020 11:00,7.4,
21-Apr-2020 12:00,9.3,
21-Apr-2020 13:00,11.9,
21-Apr-2020 14:00,11.9,
21-Apr-2020 15:00,9.7,
21-Apr-2020 16:00,10.7,
21-Apr-2020 17:00,13.3,
21-Apr-2020 18:00,13.3,
21-Apr-2020 19:00,14,
21-Apr-2020 20:00,12.9,
21-Apr-2020 21:00,8.2,
21-Apr-2020 22:00,10.1,
21-Apr-2020 23:00,7.1,
22-Apr-2020 00:00,7,
22-Apr-2020 01:00,3.9,
22-Apr-2020 02:00,5.1,
22-Apr-2020 03:00,7,
22-Apr-2020 04:00,6.7,
22-Apr-2020 05:00,8.8,
22-Apr-2020 06:00,10.8,
22-Apr-2020 07:00,9.2,
22-Apr-2020 08:00,7.4,
22-Apr-2020 09:00,10.2,
22-Apr-2020 10:00,5.9,
22-Apr-2020 11:00,8.3,
22-Apr-2020 12:00,7.5,
22-Apr-2020 13:00,10,
22-Apr-2020 14:00,16,
22-Apr-2020 15:00,11.6,
22-Apr-2020 16:00,15,
22-Apr-2020 17:00,15.8,
22-Apr-2020 18:00,12.5,
22-Apr-2020 19:00,13.7,
22-Apr-2020 20:00,15.6,
22-Apr-2020 21:00,12.2,
22-Apr-2020 22:00,13.4,
22-Apr-2020 23:00,12.4,
23-Apr-2020 00:00,8.9,
23-Apr-2020 01:00,9.8,
23-Apr-2020 02:00,6.5,
23-Apr-2020 03:00,9.7,
23-Apr-2020 04:00,7.7,
23-Apr-2020 05:00,8.6,
23-Apr-2020 06:00,11.3,
23-Apr-2020 07:00,9.4,
23-Apr-2020 08:00,9.5,
23-Apr-2020 09:00,6.2,
23-Apr-2020 10:00,8.4,
23-Apr-2020 11:00,3.9,
23-Apr-2020 12:00,12.4,
23-Apr-2020 13:00,13.2,
23-Apr-2020 14:00,15.2,
23-Apr-2020 15:00,16.1,
23-Apr-2020 16:00,15.5,
23-Apr-2020 17:00,18.9,
23-Apr-2020 18:00,15.6,
23-Apr-2020 19:00,17,
23-Apr-2020 20:00,15.8,
23-Apr-2020 21:00,16.1,
23-Apr-2020 22:00,11.6,
23-Apr-2020 23:00,11.5,
24-Apr-2020 00:00,9.6,
24-Apr-2020 01:00,8.3,
24-Apr-2020 02:00,9.5,
24-Apr-2020 03:00,10.4,
24-Apr-2020 04:00,10.6,
24-Apr-2020 05:00,9.5,
24-Apr-2020 06:00,9.1,
24-Apr-2020 07:00,8.8,
24-Apr-2020 08:00,10.2,
24-Apr-2020 09:00,10,
24-Apr-2020 10:00,9.4,
24-Apr-2020 11:00,7.4,
24-Apr-2020 12:00,8.9,
24-Apr-2020 13:00,16,
24-Apr-2020 14:00,19.1,
24-Apr-2020 15:00,19.2,
24-Apr-2020 16:00,18.5,
24-Apr-2020 17:00,20,
24-Apr-2020 18:00,18.2,
24-Apr-2020 19:00,20.8,
24-Apr-2020 20:00,20.6,
24-Apr-2020 21:00,18.8,
24-Apr-2020 22:00,18.3,
24-Apr-2020 23:00,18,
25-Apr-2020 00:00,16.8,
25-Apr-2020 01:00,15,
25-Apr-2020 02:00,11.4,
25-Apr-2020 03:00,14.1,
25-Apr-2020 04:00,13.6,
25-Apr-2020 05:00,14.6,
25-Apr-2020 06:00,13.2,
25-Apr-2020 07:00,11.9,
25-Apr-2020 08:00,10.6,
25-Apr-2020 09:00,9.9,
25-Apr-2020 10:00,11.4,
25-Apr-2020 11:00,10.9,
25-Apr-2020 12:00,13.1,
25-Apr-2020 13:00,14.3,
25-Apr-2020 14:00,17.3,
25-Apr-2020 15:00,17,
25-Apr-2020 16:00,7.5,
25-Apr-2020 17:00,7.3,
25-Apr-2020 18:00,7.1,
25-Apr-2020 19:00,12.6,
25-Apr-2020 20:00,10.6,
25-Apr-2020 21:00,7.5,
25-Apr-2020 22:00,8,
25-Apr-2020 23:00,4.7,
26-Apr-2020 00:00,14.1,
26-Apr-2020 01:00,17.6,
26-Apr-2020 02:00,11.8,
26-Apr-2020 03:00,12.9,
26-Apr-2020 04:00,10.3,
26-Apr-2020 05:00,12.6,
26-Apr-2020 06:00,9.5,
26-Apr-2020 07:00,-0.2,
26-Apr-2020 08:00,6.6,
26-Apr-2020 09:00,5.1,
26-Apr-2020 10:00,3.4,
26-Apr-2020 11:00,5.5,
26-Apr-2020 12:00,13.6,
26-Apr-2020 13:00,8.4,
26-Apr-2020 14:00,15.5,
26-Apr-2020 15:00,16.1,
26-Apr-2020 16:00,14.1,
26-Apr-2020 17:00,15.5,
26-Apr-2020 18:00,40.3,
26-Apr-2020 19:00,24.1,
26-Apr-2020 20:00,14,
26-Apr-2020 21:00,11.6,
26-Apr-2020 22:00,14.1,
26-Apr-2020 23:00,13.4,
27-Apr-2020 00:00,12.5,
27-Apr-2020 01:00,12.5,
27-Apr-2020 02:00,16.9,
27-Apr-2020 03:00,11.7,
27-Apr-2020 04:00,13.9,
27-Apr-2020 05:00,13.8,
27-Apr-2020 06:00,13.6,
27-Apr-2020 07:00,13.1,
27-Apr-2020 08:00,11.6,
27-Apr-2020 09:00,11.9,
27-Apr-2020 10:00,12.3,
27-Apr-2020 11:00,10.1,
27-Apr-2020 12:00,10.9,
27-Apr-2020 13:00,11.2,
27-Apr-2020 14:00,17.1,
27-Apr-2020 15:00,16.2,
27-Apr-2020 16:00,15.9,
27-Apr-2020 17:00,19.9,
27-Apr-2020 18:00,19.9,
27-Apr-2020 19:00,16.6,
27-Apr-2020 20:00,18.9,
27-Apr-2020 21:00,16.2,
27-Apr-2020 22:00,15.6,
27-Apr-2020 23:00,15.2,
28-Apr-2020 00:00,15.3,
28-Apr-2020 01:00,10.1,
28-Apr-2020 02:00,12.9,
28-Apr-2020 03:00,12.1,
28-Apr-2020 04:00,11.5,
28-Apr-2020 05:00,11.3,
28-Apr-2020 06:00,13,
28-Apr-2020 07:00,12,
28-Apr-2020 08:00,13.1,
28-Apr-2020 09:00,10.2,
28-Apr-2020 10:00,8.4,
28-Apr-2020 11:00,6.9,
28-Apr-2020 12:00,9.6,
28-Apr-2020 13:00,12.9,
28-Apr-2020 14:00,13.8,
28-Apr-2020 15:00,11.8,
28-Apr-2020 16:00,15.3,
28-Apr-2020 17:00,15.9,
28-Apr-2020 18:00,17.2,
28-Apr-2020 19:00,24,
28-Apr-2020 20:00,15.1,
28-Apr-2020 21:00,14.8,
28-Apr-2020 22:00,14.1,
28-Apr-2020 23:00,15,
29-Apr-2020 00:00,13.3,
29-Apr-2020 01:00,13.8,
29-Apr-2020 02:00,13.8,
29-Apr-2020 03:00,14.9,
29-Apr-2020 04:00,18.3,
29-Apr-2020 05:00,29.4,
29-Apr-2020 06:00,24.1,
29-Apr-2020 07:00,8.2,
29-Apr-2020 08:00,9,
29-Apr-2020 09:00,16,
29-Apr-2020 10:00,,BA
29-Apr-2020 11:00,,BA
29-Apr-2020 12:00,,BA
29-Apr-2020 13:00,12.1,
29-Apr-2020 14:00,19.4,
29-Apr-2020 15:00,20.1,
29-Apr-2020 16:00,16.6,
29-Apr-2020 17:00,20.7,
29-Apr-2020 18:00,15.4,
29-Apr-2020 19:00,13.5,
29-Apr-2020 20:00,12.4,
29-Apr-2020 21:00,15.7,
29-Apr-2020 22:00,12.4,
29-Apr-2020 23:00,18.6,
30-Apr-2020 00:00,17.4,
30-Apr-2020 01:00,14.8,
30-Apr-2020 02:00,17.5,
30-Apr-2020 03:00,17.5,
30-Apr-2020 04:00,25.1,
30-Apr-2020 05:00,21.7,
30-Apr-2020 06:00,13.8,
30-Apr-2020 07:00,17.4,
30-Apr-2020 08:00,19.4,
30-Apr-2020 09:00,13.8,
30-Apr-2020 10:00,17.4,
30-Apr-2020 11:00,13.9,
30-Apr-2020 12:00,15.8,
30-Apr-2020 13:00,11.8,
30-Apr-2020 14:00,33.1,
30-Apr-2020 15:00,20,
30-Apr-2020 16:00,22.5,
30-Apr-2020 17:00,24,
30-Apr-2020 18:00,24.1,
30-Apr-2020 19:00,25.1,
30-Apr-2020 20:00,12,
30-Apr-2020 21:00,10.9,
30-Apr-2020 22:00,10.4,
30-Apr-2020 23:00,7.5,
